Location: Adavinekkalam
(16.6301°N, 80.7229°E)
Time: 21:30:59
(UTC+00:00)

Aureole 3 Rocket - Pass Details

Date: 15 May 2026
Orbit: 398 x 1686 km, 82.5° (Epoch: 10 June)

Event Time Altitude Azimuth Distance (km) Brightness Sun altitude
Exits shadow 15:19:57 57° 206° (SSW) 1,253 4.4 -30.6°
Maximum altitude 15:21:25 77° 275° (W) 1,164 4.3 -30.9°
Drops below altitude 10° 15:29:46 10° 1° (N) 3,516 7.2 -32.5°
Sets 15:33:02 0° 3° (N) 4,645 7.9 -33.1°
